sat.trackr.live / text

‹ back to catalog

STARLINK-34005

NORAD 63935 · 2025-098K

PAYLOAD ACTIVE UNKNOWN

§ Identity

Operator
Country
US
Launch date
2025-05-13
Launch site
AFWTR
Launch vehicle
Mass (kg)
RCS (m²)

Purposes: comms

External: N2YO · Heavens-Above · Gunter

§ Orbital elements

Epoch: 2026-09-20T02:49:39.401760Z

Period
94.14 min
Inclination
70.0005°
Eccentricity
0.0002731
Mean motion
15.29593489 rev/d
Perigee alt
475.2 km
Apogee alt
478.9 km
Semi-major
6,855.2 km
B*
3.4079e-4
RAAN
141.9302°
Arg perigee
283.3589°
Mean anomaly
76.7282°
Rev number
7,574

§ Raw data

STARLINK-340051 63935U 25098K   26263.11781715  .00009685  00000+0  34079-3 0  99932 63935  70.0005 141.9302 0002731 283.3589  76.7282 15.29593489 75741

JSON: /api/v1/satellites/63935 · /tle

For live sub-satellite position, see the globe view (requires WebGL).

§ Visibility from observer

Set your observer location to see the next 7 days of passes ≥ 10°. The values pass through the URL so the page stays shareable.

No JS? Fill the form by hand. The geolocation button needs JavaScript.